TimeEST,TemperatureF,Dew PointF,Humidity,Sea Level PressureIn,VisibilityMPH,Wind Direction,Wind SpeedMPH,Gust SpeedMPH,PrecipitationIn,Events,Conditions,WindDirDegrees,DateUTC
12:01 AM,33.8,30.2,87,29.66,3.0,ENE,12.7,21.9,0.00,Snow,Light Snow,70,2012-12-19 05:01:00
12:51 AM,33.8,30.2,87,29.65,2.0,ENE,15.0,20.7,0.00,Snow,Light Snow,70,2012-12-19 05:51:00
12:54 AM,33.1,30.0,89,29.68,1.8,ENE,13.8,20.7,0.00,Snow,Light Snow,60,2012-12-19 05:54:00
1:07 AM,33.8,30.2,87,29.65,1.2,ENE,10.4,-,0.01,Snow,Light Snow,60,2012-12-19 06:07:00
1:15 AM,33.8,30.2,87,29.65,1.0,ENE,10.4,19.6,0.01,Snow,Light Snow,60,2012-12-19 06:15:00
1:50 AM,33.8,30.2,87,29.65,0.8,ENE,15.0,24.2,0.05,Snow,Light Snow,60,2012-12-19 06:50:00
1:54 AM,33.1,30.9,92,29.68,0.8,ENE,13.8,24.2,0.06,Snow,Light Snow,70,2012-12-19 06:54:00
2:13 AM,33.8,30.2,87,29.64,1.0,ENE,11.5,24.2,0.02,Snow,Light Snow,60,2012-12-19 07:13:00
2:25 AM,33.8,30.2,87,29.64,1.2,ENE,13.8,-,0.04,Snow,Light Snow,60,2012-12-19 07:25:00
2:47 AM,33.8,30.2,87,29.64,0.8,ENE,10.4,19.6,0.07,Snow,Light Snow,60,2012-12-19 07:47:00
2:54 AM,32.0,30.9,96,29.67,0.8,NE,10.4,-,0.08,Snow,Light Snow,50,2012-12-19 07:54:00
3:04 AM,33.8,30.2,87,29.64,1.0,NE,10.4,18.4,0.01,Snow,Light Snow,50,2012-12-19 08:04:00
3:18 AM,33.8,30.2,87,29.64,0.8,NE,13.8,19.6,0.04,Snow,Light Snow,50,2012-12-19 08:18:00
3:54 AM,33.1,30.9,92,29.67,0.8,NE,10.4,-,0.11,Snow,Light Snow,50,2012-12-19 08:54:00
4:42 AM,33.8,30.2,87,29.64,1.0,NE,9.2,-,0.10,Snow,Light Snow,40,2012-12-19 09:42:00
4:54 AM,33.1,30.9,92,29.68,1.2,NE,10.4,-,0.11,Snow,Light Snow,50,2012-12-19 09:54:00
5:43 AM,33.8,30.2,87,29.65,1.8,NE,9.2,-,0.05,Snow,Light Snow,50,2012-12-19 10:43:00
5:52 AM,33.8,30.2,87,29.65,1.5,NE,8.1,-,0.06,Snow,Light Snow,50,2012-12-19 10:52:00
5:54 AM,33.1,30.9,92,29.69,1.2,NE,10.4,-,0.06,Snow,Light Snow,50,2012-12-19 10:54:00
6:01 AM,33.8,30.2,87,29.66,1.5,NE,10.4,-,0.00,Snow,Light Snow,50,2012-12-19 11:01:00
6:17 AM,33.8,30.2,87,29.66,3.0,NE,8.1,-,0.01,Snow,Light Snow,50,2012-12-19 11:17:00
6:54 AM,34.0,30.9,89,29.70,4.0,NE,10.4,-,0.02,Snow,Light Snow,50,2012-12-19 11:54:00
7:37 AM,33.8,30.2,87,29.68,1.8,NE,12.7,-,0.00,Snow,Light Snow,50,2012-12-19 12:37:00
7:54 AM,34.0,30.9,89,29.72,2.0,NE,10.4,-,0.01,Snow,Light Snow,50,2012-12-19 12:54:00
8:22 AM,33.8,30.2,87,29.69,1.5,ENE,11.5,-,0.00,Snow,Light Snow,60,2012-12-19 13:22:00
8:34 AM,33.8,30.2,87,29.70,1.2,NE,9.2,17.3,0.01,Snow,Light Snow,50,2012-12-19 13:34:00
8:47 AM,33.8,30.2,87,29.71,1.8,ENE,9.2,-,0.01,Snow,Light Snow,60,2012-12-19 13:47:00
8:54 AM,33.1,30.0,89,29.74,2.0,NE,10.4,-,0.01,Snow,Light Snow,50,2012-12-19 13:54:00
9:07 AM,33.8,30.2,87,29.71,1.5,NE,9.2,-,0.00,Snow,Light Snow,50,2012-12-19 14:07:00
9:28 AM,33.8,30.2,87,29.72,1.0,NE,9.2,-,0.00,Snow,Light Snow,50,2012-12-19 14:28:00
9:51 AM,33.8,30.2,87,29.73,0.8,NE,6.9,-,0.01,Snow,Light Snow,40,2012-12-19 14:51:00
9:54 AM,33.1,30.9,92,29.76,0.8,NE,6.9,-,0.01,Snow,Light Snow,40,2012-12-19 14:54:00
10:01 AM,33.8,30.2,87,29.73,0.5,NE,9.2,-,0.00,Fog-Snow,Snow,40,2012-12-19 15:01:00
10:13 AM,32.0,30.2,93,29.73,0.5,NE,9.2,-,0.02,Fog-Snow,Snow,40,2012-12-19 15:13:00
10:54 AM,32.0,30.9,96,29.76,0.8,NNE,6.9,-,0.05,Snow,Light Snow,30,2012-12-19 15:54:00
11:07 AM,32.0,30.2,93,29.73,0.8,NNE,10.4,-,0.01,Snow,Light Snow,30,2012-12-19 16:07:00
11:33 AM,32.0,30.2,93,29.74,1.0,NNE,9.2,-,0.02,Snow,Light Snow,30,2012-12-19 16:33:00
11:54 AM,32.0,30.0,92,29.78,0.8,NNE,9.2,-,0.03,Snow,Light Snow,30,2012-12-19 16:54:00
12:03 PM,32.0,30.2,93,29.74,0.8,NNE,9.2,-,0.00,Snow,Light Snow,30,2012-12-19 17:03:00
12:13 PM,32.0,30.2,93,29.75,1.0,NNE,8.1,-,0.00,Snow,Light Snow,30,2012-12-19 17:13:00
12:43 PM,32.0,30.2,93,29.75,1.0,NNE,9.2,-,0.02,Snow,Light Snow,20,2012-12-19 17:43:00
12:54 PM,32.0,30.0,92,29.78,0.8,NNE,8.1,-,0.02,Snow,Light Snow,20,2012-12-19 17:54:00
1:04 PM,32.0,30.2,93,29.75,1.0,NNE,9.2,-,0.01,Snow,Light Snow,20,2012-12-19 18:04:00
1:54 PM,32.0,30.0,92,29.80,1.2,NNE,10.4,-,0.02,Snow,Light Snow,20,2012-12-19 18:54:00
2:01 PM,32.0,30.2,93,29.77,1.8,NNE,10.4,-,0.00,Snow,Light Snow,20,2012-12-19 19:01:00
2:12 PM,32.0,30.2,93,29.77,2.0,NNE,9.2,-,0.00,Snow,Light Snow,20,2012-12-19 19:12:00
2:32 PM,32.0,28.4,87,29.78,1.8,NNE,9.2,-,0.01,Snow,Light Snow,20,2012-12-19 19:32:00
2:39 PM,32.0,28.4,87,29.79,1.8,NNE,9.2,-,0.01,Snow,Light Snow,20,2012-12-19 19:39:00
2:43 PM,32.0,28.4,87,29.79,2.0,NNE,10.4,-,0.01,Snow,Light Snow,30,2012-12-19 19:43:00
2:51 PM,32.0,28.4,87,29.80,1.8,NNE,9.2,-,0.01,Snow,Light Snow,20,2012-12-19 19:51:00
2:54 PM,30.9,28.9,92,29.83,2.0,NNE,8.1,-,0.01,Snow,Light Snow,20,2012-12-19 19:54:00
3:01 PM,30.2,28.4,93,29.80,2.0,NNE,9.2,-,0.00,Snow,Light Snow,20,2012-12-19 20:01:00
3:06 PM,30.2,28.4,93,29.81,2.5,NNE,8.1,-,0.00,Snow,Light Snow,20,2012-12-19 20:06:00
3:11 PM,30.2,28.4,93,29.81,2.5,NNE,9.2,-,0.00,Snow,Light Snow,20,2012-12-19 20:11:00
3:15 PM,30.2,28.4,93,29.81,3.0,NNE,9.2,-,0.00,Snow,Light Snow,20,2012-12-19 20:15:00
3:25 PM,30.2,28.4,93,29.81,4.0,NNE,10.4,-,0.00,Snow,Light Snow,20,2012-12-19 20:25:00
3:54 PM,30.9,27.0,85,29.87,8.0,NNE,11.5,-,0.00,Snow,Light Snow,20,2012-12-19 20:54:00
4:29 PM,30.2,26.6,86,29.85,5.0,NNE,11.5,-,0.00,Snow,Light Snow,20,2012-12-19 21:29:00
4:54 PM,30.0,26.1,85,29.90,9.0,NNE,11.5,-,0.01,,Overcast,30,2012-12-19 21:54:00
5:32 PM,30.2,26.6,86,29.88,10.0,NNE,10.4,-,N/A,,Overcast,20,2012-12-19 22:32:00
5:54 PM,30.0,26.1,85,29.93,10.0,NNE,11.5,-,N/A,,Overcast,20,2012-12-19 22:54:00
6:54 PM,28.9,25.0,85,29.96,10.0,NNE,12.7,-,N/A,,Overcast,20,2012-12-19 23:54:00
7:54 PM,28.9,25.0,85,29.99,10.0,NNE,10.4,-,N/A,,Overcast,20,2012-12-20 00:54:00
8:54 PM,28.9,24.1,82,30.01,10.0,North,6.9,-,N/A,,Overcast,10,2012-12-20 01:54:00
9:54 PM,28.0,24.1,85,30.01,10.0,North,8.1,-,N/A,,Overcast,10,2012-12-20 02:54:00
10:54 PM,28.0,24.1,85,30.03,10.0,NNE,6.9,-,N/A,,Overcast,20,2012-12-20 03:54:00
11:54 PM,28.0,24.1,85,30.06,10.0,North,8.1,-,N/A,,Overcast,10,2012-12-20 04:54:00